Simultaneous Nadir Overpasses (SNOs) Predictions

Prediction of SNOs between GOES-17 and METOP-C Satellite Orbit:

Table of predicted SNOs for the next 14.0 days since TLE Epoch: 5/6/2023
Index Date Time (GOES-17) GOES-17 Lat,Lon METOP-C Lat,Lon Distance(km) Time Diff (sec)
1 05/06/2023 16:44:31 -0.01,-104.75 0.88,-108.74 454.51 80
2 05/07/2023 16:26:31 -0.00,-104.75 -0.25,-103.75 114.59 80
3 05/09/2023 04:45:30 -0.00,-104.70 -0.80,-108.34 414.33 80
4 05/10/2023 04:22:10 -0.00,-104.69 0.28,-103.34 154.28 80
5 05/11/2023 16:41:01 0.00,-104.73 0.70,-107.90 361.48 80
6 05/12/2023 16:23:01 0.00,-104.73 -0.38,-102.90 207.50 80
7 05/14/2023 04:42:01 -0.00,-104.68 -0.61,-107.50 321.05 80
8 05/15/2023 04:18:41 -0.00,-104.68 0.48,-102.50 247.99 80
9 05/16/2023 16:37:31 0.01,-104.72 0.53,-107.06 267.02 80
10 05/17/2023 16:19:30 0.01,-104.72 -0.56,-102.06 302.45 80
11 05/19/2023 04:38:31 -0.01,-104.68 -0.43,-106.66 225.51 80
12 05/20/2023 04:15:10 -0.01,-104.68 0.67,-101.66 343.60 80
